Location: Im Fang
(46.6019°N, 7.2397°E)
Time: 10:35:20
(UTC+00:00)

Cosmos 1703 Rocket - Pass Details

Date: 08 December 2019
Orbit: 604 x 635 km, 82.5° (Epoch: 21 January)

Event Time Altitude Azimuth Distance (km) Brightness Sun altitude
Exits shadow 05:22:12 18° 334° (NNW) 1,569 5.2 -16.4°
Maximum altitude 05:25:16 46° 267° (W) 846 3.8 -15.8°
Drops below altitude 10° 05:29:29 10° 194° (SSW) 1,987 6.2 -15.2°
Sets 05:31:45 0° 189° (S) 2,883 7.1 -14.8°
